Banner
jump to: JAN | FEB | MAR | APR | MAY | JUN | JUL | AUG | SEP | OCT | NOV | DEC

JANUARY - SAINT LOUIS WEATHER CALENDAR
          SUN           RECORD TEMPS      NORMAL TEMPS   PRECIPITATION     RECORD PRECIPITATION 
       RISE  SET    HIGH YEAR  LOW  YEAR  HIGH LOW MEAN   MONTH   YEAR   AMOUNT  YEAR  SNOW  YEAR
     
  1    7:19  4:51    70  1965  -10  1974    40  24  32     0.09   0.09    3.49   1890   5.1  1999  
  2    7:19  4:51    72  1997  - 9  1879    40  24  32     0.18   0.18    1.11   1907   8.2  1996
  3    7:19  4:52    68  1939  -12  1879    40  24  32     0.27   0.27    4.16   1950   1.1  1893
  4    7:19  4:53    72  1997  - 9  1879    40  24  32     0.36   0.36    2.20   2004   4.4  1977
  5    7:19  4:54    66  2012  -22  1884    40  24  32     0.44   0.44    1.58   2005  10.8  2014
  6    7:19  4:55    73  2008  -11  1884    40  24  32     0.53   0.53    1.35   1890   5.1  1962
  7    7:19  4:56    73  2008  -14  1912    39  24  32     0.61   0.61    1.39   1937   5.9  1940
  8    7:19  4:57    71  2006  - 7  1976    39  24  32     0.69   0.69    1.56   2008   6.3  1920
  9    7:19  4:58    65  1876  -16  1875    39  24  32     0.76   0.76    0.88   1987   9.1  1987
 10    7:19  4:59    68  1890  -15  1982    39  24  32     0.84   0.84    2.09   1975   1.7  1905
 11    7:19  5:00    74  1911  -14  1918    40  23  32     0.92   0.92    1.81   1916  11.0  1909
 12    7:18  5:01    70  1936  -17  1918    40  23  32     0.99   0.99    1.67   2005   5.1  1964
 13    7:18  5:02    67  1952  - 8  1912    40  23  32     1.06   1.06    2.12   1995   3.8  1977
 14    7:18  5:03    71  1928  - 9  1881    40  23  32     1.14   1.14    1.23   1937   1.6  1968
 15    7:17  5:04    69  1901  -12  1888    40  23  32     1.21   1.21    1.18   1907   4.0  1997
 16    7:17  5:05    71  1990  -14  1977    40  23  32     1.28   1.28    1.06   1907  10.9  1978
 17    7:17  5:06    72  1894  -14  1930    40  23  32     1.36   1.36    1.02   2004   2.3  1960
 18    7:16  5:07    72  1880  -19  1930    40  24  32     1.44   1.44    1.62   1949  10.0  1892
 19    7:16  5:08    75  1952  -14  1940    40  24  32     1.51   1.51    1.36   1988   6.9  1987
 20    7:15  5:09    72  1906  -18  1985    40  24  32     1.59   1.59    1.63   1894   5.7  2011
 21    7:15  5:10    75  1986  - 8  1970    40  24  32     1.66   1.66    2.10   1906   2.5  1959
 22    7:14  5:11    72  1967  -14  1930    40  24  32     1.74   1.74    2.14   1874   4.9  1915
 23    7:14  5:13    75  1967  -11  1963    40  24  32     1.81   1.81    0.87   1999   3.6  1977
 24    7:13  5:14    77  1950  -11  1894    40  24  32     1.88   1.88    1.25   1928   4.6  1936
 25    7:12  5:15    75  1950  - 7  1940    40  24  32     1.96   1.96    0.97   1950   7.5  1978
 26    7:12  5:16    72  1890  - 8  1936    41  24  32     2.03   2.03    2.13   1967   2.6  1961
 27    7:11  5:17    71  1944  -14  1936    41  24  32     2.11   2.11    1.00   1949   4.6  1979
 28    7:10  5:18    76  1970  -11  1936    41  24  32     2.18   2.18    1.54   1876   2.1  1895
 29    7:09  5:19    73  2008  - 8  1966    41  24  33     2.25   2.25    1.44   2013   4.8  1956
 30    7:09  5:21    67  2012  - 9  1936    41  24  33     2.32   2.32    2.47   1916   5.0  1982
 31    7:08  5:22    74  1989  - 9  1936    41  25  33     2.40   2.40    1.62   1988  11.0  1958


...NORMALS FOR THE MONTH OF JANUARY...   

 TEMPERATURES          PRECIPITATION                    HEATING   

 HIGH  39.9         MONTH            2.40         MONTH           1029   
 LOW   23.7         YEAR TO DATE     2.40         SEASON TO DATE  2794   
 MEAN  31.8                            
                          SNOWFALL                      COOLING
                           
                    MONTH            5.6          MONTH              0                     
                    YEAR TO DATE     5.6          YEAR TO DATE       0                     
                    SEASON TO DATE  10.7
...EXTREMES FOR THE MONTH OF JANUARY...
    
 RECORD HIGH TEMP 77 IN 1950         
 RECORD LOW TEMP -22 IN 1884         
 LOWEST HIGH TEMP -2 IN 1888 AND 1884         
 HIGHEST LOW TEMP 63 IN 1906         
 HIGHEST MEAN TEMP 68 IN 1950        
 LOWEST MEAN TEMP -13 IN 1884        
 WARMEST JANUARY 46.8 IN 1880        
 COLDEST JANUARY 14.6 IN 1940  
 WETTEST JANUARY 9.01 INCHES IN 2005   
 DRIEST JANUARY 0.10 INCHES IN 1986   
 MAXIMUM 24 HR RAINFALL 4.46 INCHES IN 1950   
 MAXIMUM 24 HR SNOWFALL 13.9 INCHES IN 1982  
 MAXIMUM JANUARY SNOWFALL 23.9 INCHES IN 1977  
 MINIMUM JANUARY SNOWFALL 0.0 INCHES IN 1923  
 HIGHEST WIND SPEED 66 MPH IN 1898  
 HIGHEST PRESSURE 30.99 INCHES IN 1924   
 LOWEST PRESSURE 28.93 INCHES IN 1975


FEBRUARY - SAINT LOUIS WEATHER CALENDAR
          SUN           RECORD TEMPS      NORMAL TEMPS   PRECIPITATION     RECORD PRECIPITATION 
       RISE  SET    HIGH YEAR  LOW  YEAR  HIGH LOW MEAN   MONTH   YEAR   AMOUNT  YEAR  SNOW  YEAR
  
  1    7:07  5:23    84  1911  - 6  1951    41  25  33     0.08   2.48    1.30   1986   6.5  1966  
  2    7:06  5:24    65  2012  -10  1917    42  25  33     0.15   2.55    1.18   1883   7.8  1961
  3    7:05  5:25    75  1890  -12  1996    42  25  33     0.23   2.63    1.57   1986   5.5  1912
  4    7:04  5:26    78  1962  - 7  1996    42  25  34     0.30   2.70    1.36   1971   6.6  1990
  5    7:03  5:27    71  1938  - 6  1979    42  25  34     0.38   2.78    2.36   2008   4.0  1905
  6    7:02  5:29    69  1925  - 8  1978    42  26  34     0.46   2.86    1.11   1951   2.4  1916
  7    7:01  5:30    71  2015  - 3  1895    43  26  34     0.54   2.94    1.79   1999   2.6  1973
  8    7:00  5:31    70  1990  -12  1895    43  26  34     0.62   3.02    1.32   1900   5.0  1982
  9    6:59  5:32    75  1943  -16  1899    43  26  35     0.70   3.10    2.36   1959   5.0  1910
 10    6:58  5:33    83  1932  - 9  1982    43  26  35     0.79   3.19    1.46   1875   4.2  1988
 11    6:57  5:34    72  1999  - 9  1899    44  27  35     0.87   3.27    1.22   2009   2.4  1956
 12    6:56  5:35    78  1938  -16  1899    44  27  35     0.96   3.36    1.24   1896   4.0  1894
 13    6:54  5:37    83  1962  -18  1905    44  27  36     1.04   3.44    1.40   1874  11.7  1914
 14    6:53  5:38    74  1954  - 2  1905    45  27  36     1.13   3.53    1.81   1949   6.1  1986
 15    6:52  5:39    75  1976  - 4  1905    45  28  36     1.21   3.61    1.21   1903   6.5  1993
 16    6:51  5:40    76  1911  - 5  1958    45  28  37     1.28   3.68    1.46   1889  11.3  1910
 17    6:50  5:41    77  1911  - 6  1903    46  28  37     1.36   3.76    1.46   1938   2.0  1910
 18    6:48  5:42    74  1971  - 9  1936    46  28  37     1.44   3.84    2.24   2000   1.7  1934
 19    6:47  5:43    76  1930  - 3  1936    46  29  37     1.52   3.92    3.96   1882   9.3  1911
 20    6:46  5:44    77  1996  - 4  1885    47  29  38     1.59   3.99    2.75   1882   9.5  1912
 21    6:44  5:45    79  1935  - 1  1885    47  29  38     1.67   4.07    1.68   1974   6.1  1912
 22    6:43  5:46    78  1995    3  1963    47  30  38     1.75   4.15    1.62   1975   2.6  1919
 23    6:42  5:48    77  1996  - 1  1910    48  30  39     1.84   4.24    1.52   1985   5.0  1907
 24    6:40  5:49    81  1930    4  1910    48  30  39     1.92   4.32    1.49   2001   6.2  1975
 25    6:39  5:50    76  1996    1  1967    48  30  39     2.00   4.40    1.92   1889   9.6  1993
 26    6:38  5:51    78  1996  - 3  1934    49  31  40     2.08   4.48    2.19   1997  12.8  1906
 27    6:36  5:52    79  1981  - 8  1934    49  31  40     2.16   4.56    0.99   1889   4.5  1984
 28    6:35  5:53    80  1972    4  1890    50  31  40     2.24   4.64    1.35   1900   5.4  1922
 29    6:33  5:54    85  1972    9  1884    50  32  41     2.24   4.64    0.48   1928   4.7  1928

...NORMALS FOR THE MONTH OF FEBRUARY...

 TEMPERATURES          PRECIPITATION                     HEATING 

 HIGH  45.0         MONTH            2.24         MONTH            804 
 LOW   27.6         YEAR TO DATE     4.64         SEASON TO DATE  3598 
 MEAN  36.3 
                          SNOWFALL                       COOLING 
  
                    MONTH            4.3          MONTH              0
                    YEAR TO DATE     9.9          YEAR TO DATE       0
                    SEASON TO DATE  15.0
...EXTREMES FOR THE MONTH OF FEBRUARY... 

 RECORD HIGH TEMP 85 IN 1972      
 RECORD LOW TEMP -18 IN 1905      
 LOWEST HIGH TEMP -3 IN 1899       
 HIGHEST LOW TEMP 62 IN 1954 AND 1932      
 HIGHEST MEAN TEMP 73 IN 1932     
 LOWEST MEAN TEMP -10 IN 1899     
 WARMEST FEBRUARY 44.6 IN 1882    
 COLDEST FEBRUARY 21.1 IN 1978
 WETTEST FEBRUARY 8.94 INCHES IN 1882 
 DRIEST FEBRUARY 0.25 INCHES IN 1963 
 MAXIMUM 24 HR RAINFALL 4.44 INCHES IN 1882
 MAXIMUM 24 HR SNOWFALL 15.6 INCHES IN 1912
 MAXIMUM FEBRUARY SNOWFALL 23.5 INCHES IN 1914
 MINIMUM FEBRUARY SNOWFALL TRACE INCHES (multiple occurrences)
 HIGHEST WIND SPEED 67 MPH IN 2011
 HIGHEST PRESSURE 30.93 INCHES IN 1918 
 LOWEST PRESSURE 28.82 INCHES IN 1960


MARCH - SAINT LOUIS WEATHER CALENDAR
          SUN           RECORD TEMPS      NORMAL TEMPS   PRECIPITATION     RECORD PRECIPITATION 
       RISE  SET    HIGH YEAR  LOW  YEAR  HIGH LOW MEAN   MONTH   YEAR   AMOUNT  YEAR  SNOW  YEAR
  
  1    6:33  5:54    79  1887    5  1962    50  32  41     0.08   4.72    0.86   1895   6.8  1916 
  2    6:32  5:55    79  1992    2  1980    50  32  41     0.17   4.81    1.21   1945   7.8  1912
  3    6:31  5:56    85  1974    1  1943    51  32  42     0.25   4.89    1.49   1976   3.2  1965
  4    6:29  5:57    79  1974  - 1  1978    51  33  42     0.34   4.98    1.44   1963  10.0  2008
  5    6:28  5:58    84  1956  - 5  1960    52  33  42     0.43   5.07    2.31   1897   2.3  1943
  6    6:26  5:59    85  1956    2  1960    52  33  43     0.53   5.17    0.76   1973  10.0  1989
  7    6:25  6:00    85  1974    2  1943    52  34  43     0.62   5.26    1.80   1978   6.8  1978
  8    6:23  6:01    82  1974    4  1943    53  34  43     0.72   5.36    2.27   1909   4.0  1960
  9    6:22  6:02    80  1925    9  1932    53  34  44     0.81   5.45    1.33   1964  10.0  1958
 10    6:20  6:03    86  1955    8  1934    54  35  44     0.91   5.55    1.50   1935   4.0  1948
 11    6:19  6:04    85  1972    8  1948    54  35  44     1.01   5.65    2.26   1977   4.8  2000
 12    6:17  6:05    84  2012    1  1948    54  35  45     1.11   5.75    1.42   1961   7.0  1968
 13    6:16  6:06    85  1933   12  1968    55  36  45     1.21   5.85    1.16   1938   7.3  1937
 14    6:14  6:07    86  2012   13  1993    55  36  46     1.31   5.95    1.21   2011   3.0  1896
 15    6:12  6:08    81  2012    9  1890    56  36  46     1.42   6.06    1.42   1923   5.0  1960
 16    6:11  6:09    86  1945   11  1900    56  37  46     1.53   6.17    0.68   1963   3.0  1976 
 17    6:09  6:10    83  2011   10  1900    56  37  47     1.64   6.28    1.34   2012   2.5  1949
 18    6:08  6:11    82  2012    6  1923    57  37  47     1.76   6.40    2.46   2008   0.4  1988
 19    6:06  6:12    84  1907    4  1923    57  38  47     1.87   6.51    1.58   1926   9.1  1906
 20    6:05  6:13    83  2012   13  1965    58  38  48     1.98   6.62    2.02   1989   8.6  1924
 21    6:03  6:14    90  1907    8  1876    58  38  48     2.10   6.74    1.77   1948   1.2  2006
 22    6:02  6:15    88  1907   13  1885    58  39  48     2.22   6.86    1.72   1893   0.5  1955
 23    6:00  6:16    87  1910    7  1974    59  39  49     2.33   6.97    1.35   1969   6.5  1974
 24    5:59  6:17    92  1929    3  1974    59  39  49     2.45   7.09    3.59   1913  12.4  2013
 25    5:57  6:18    84  1907   11  1955    60  40  50     2.57   7.21    3.58   1904   3.0  1955
 26    5:55  6:19    87  1991    5  1955    60  40  50     2.69   7.33    1.57   2004   8.3  1913
 27    5:54  6:20    87  1910   15  1955    60  40  50     2.81   7.45    2.31   1890   6.5  1947
 28    5:52  6:21    89  1985   21  1934    61  41  51     2.93   7.57    2.38   1977   1.2  1899
 29    5:51  6:21    88  1963   21  1970    61  41  51     3.06   7.70    1.93   1985   2.0  1901
 30    5:49  6:22    86  1986   18  1964    62  41  51     3.19   7.83    2.11   1938   1.5  1942
 31    5:48  6:23    87  1981   17  1923    62  42  52     3.32   7.96    2.98   1927   3.5  1911

...NORMALS FOR THE MONTH OF MARCH... 

TEMPERATURES           PRECIPITATION          HEATING 
HIGH 55.9           MONTH 3.32              MONTH 588 
LOW 36.6            YEAR TO DATE 7.96      SEASON TO DATE 4186 
MEAN 46.3            
                        SNOWFALL              COOLING 
                    MONTH 2.3              MONTH 7 
                    YEAR TO DATE 12.2      YEAR TO DATE 7 
                    SEASON TO DATE 17.3
...EXTREMES FOR THE MONTH OF MARCH... 

 RECORD HIGH TEMP 92 IN 1929       
 RECORD LOW TEMP -5 IN 1960        
 LOWEST HIGH TEMP 15 IN 1960       
 HIGHEST LOW TEMP 68 IN 1991       
 HIGHEST MEAN TEMP 78 IN 1991      
 LOWEST MEAN TEMP 6 IN 1960        
 WARMEST MARCH 61.1 IN 2012        
 COLDEST MARCH 30.3 IN 1960
 WETTEST MARCH 8.39 INCHES IN 2008 
 DRIEST MARCH 0.14 INCHES IN 1910 
 MAXIMUM 24 HR RAINFALL 3.88 INCHES IN 1913 
 MAXIMUM 24 HR SNOWFALL 20.4U INCHES IN 1890
 MAXIMUM MARCH SNOWFALL 28.8 INCHES IN 1912
 MINIMUM MARCH SNOWFALL 0.0 INCHES (multiple occurrences)
 HIGHEST WIND SPEED 74 MPH IN 1920
 HIGHEST PRESSURE 30.81 INCHES IN 1998 
 LOWEST PRESSURE 28.86 INCHES IN 1976

APRIL - SAINT LOUIS WEATHER CALENDAR
          SUN           RECORD TEMPS      NORMAL TEMPS   PRECIPITATION     RECORD PRECIPITATION 
       RISE  SET    HIGH YEAR  LOW  YEAR  HIGH LOW MEAN   MONTH   YEAR   AMOUNT  YEAR  SNOW  YEAR
  
  1    6:46  7:24    91  1946   23  1881    62  42  52     0.13   8.09    1.54   1897   0.3  1993   
  2    6:45  7:25    89  2012   23  1961    63  42  53     0.25   8.21    2.53   2014   2.5  1901
  3    6:43  7:26    90  2011   20  1936    63  43  53     0.37   8.33    2.23   2014   2.5  1899
  4    6:41  7:27    87  1929   23  1975    63  43  53     0.48   8.44    2.16   1892   2.0  1899
  5    6:40  7:28    91  1988   22  1920    64  44  54     0.60   8.56    1.58   1926   1.7  1971
  6    6:38  7:29    87  2010   23  1982    64  44  54     0.72   8.68    1.16   1918   4.8  1971
  7    6:37  7:30    88  1948   23  2007    65  44  54     0.84   8.80    2.86   1929   1.5  1982
  8    6:35  7:31    89  1890   22  1972    65  45  55     0.96   8.92    2.41   1913   1.2  1982
  9    6:34  7:32    91  2001   25  1997    65  45  55     1.08   9.04    1.33   1888   0.2  1973
 10    6:32  7:33    93  1930   26  1960    66  45  55     1.20   9.16    2.42   1944   4.1  1997
 11    6:31  7:34    90  1930   24  1973    66  46  56     1.32   9.28    4.79   1979   0.7  1957
 12    6:29  7:35    89  1971   24  1940    66  46  56     1.43   9.39    2.00   1909   0.1  1957
 13    6:28  7:36    89  1941   25  1950    67  46  57     1.55   9.51    1.76   1923    T   2008 
 14    6:27  7:37    92  2006   28  1950    67  47  57     1.67   9.63    1.60   1879   5.0  1980
 15    6:25  7:38    89  2002   27  1928    67  47  57     1.79   9.75    1.83   1939    T   1993
 16    6:24  7:39    90  2002   25  1875    68  47  58     1.91   9.87    1.37   1874    T   2001
 17    6:22  7:40    91  1937   22  1875    68  48  58     2.04  10.00    1.87   1887   2.1  1983
 18    6:21  7:40    93  2002   29  1953    68  48  58     2.16  10.12    1.37   1969   2.0  1901
 19    6:19  7:41    88  2011   26  1983    69  49  59     2.28  10.24    1.83   1873    T   2013   
 20    6:18  7:42    89  1987   28  1904    69  49  59     2.41  10.37    1.84   1966   5.5  1904
 21    6:17  7:43    89  1965   32  1904    69  49  59     2.53  10.49    1.75   1984    T   1918
 22    6:15  7:44    91  1925   31  1936    70  50  60     2.66  10.62    4.15   1944   
 23    6:14  7:45    91  1960   28  1910    70  50  60     2.79  10.75    3.88   1878   0.8  1910
 24    6:13  7:46    90  2009   25  1910    70  50  60     2.92  10.88    1.44   1975   1.1  1910
 25    6:11  7:47    92  1986   32  1934    71  51  61     3.05  11.01    1.71   1921
 26    6:10  7:48    93  1989   30  1976    71  51  61     3.17  11.13    1.66   1912
 27    6:09  7:49    92  1989   34  1967    71  51  61     3.30  11.26    1.28   1917
 28    6:08  7:50    92  1970   32  1874    72  52  62     3.43  11.39    4.46   1996
 29    6:06  7:51    91  1899   32  1874    72  52  62     3.56  11.52    2.29   1911
 30    6:05  7:52    91  2007   35  1907    72  52  62     3.69  11.65    2.86   1893

...NORMALS FOR THE MONTH OF APRIL...

 TEMPERATURES          PRECIPITATION                     HEATING 

 HIGH  67.4         MONTH            3.69         MONTH            270 
 LOW   47.2         YEAR TO DATE    11.65         SEASON TO DATE  4456 
 MEAN  57.3 
                          SNOWFALL                       COOLING 
                    
                    MONTH            0.4          MONTH             39
                    YEAR TO DATE    12.6          YEAR TO DATE      46
                    SEASON TO DATE  17.7
...EXTREMES FOR THE MONTH OF APRIL... 
 RECORD HIGH TEMP 93 IN 2002, 1989, AND 1930       
 RECORD LOW TEMP 20 IN 1936        
 LOWEST HIGH TEMP 32 IN 1936, 1886, AND 1881        
 HIGHEST LOW TEMP 73 IN 1989       
 HIGHEST MEAN TEMP 82 IN 1989      
 LOWEST MEAN TEMP 28 IN 1881       
 WARMEST APRIL 64.8 IN 1896        
 COLDEST APRIL 46.9 IN 1907
 WETTEST APRIL 10.84 INCHES IN 1893 
 DRIEST APRIL 0.46 INCHES IN 1895 
 MAXIMUM 24 HR RAINFALL 4.91 INCHES IN 1979
 MAXIMUM 24 HR SNOWFALL 6.5 INCHES IN 1971
 MAXIMUM APRIL SNOWFALL 6.5 INCHES IN 1971 AND 1886
 MINIMUM APRIL SNOWFALL 0.0 INCHES (multiple occurrences)
 HIGHEST WIND SPEED 83 MPH IN 1981
 HIGHEST PRESSURE 30.75 INCHES IN 1981 
 LOWEST PRESSURE 29.03 INCHES IN 1983


MAY - SAINT LOUIS WEATHER CALENDAR
          SUN           RECORD TEMPS      NORMAL TEMPS   PRECIPITATION     RECORD PRECIPITATION 
       RISE  SET    HIGH YEAR  LOW  YEAR  HIGH LOW MEAN   MONTH   YEAR   AMOUNT  YEAR  SNOW  YEAR
  
  1    6:04  7:53    90  1936   34  1963    72  53  62     0.13  11.78    1.43   1983    T   1909    
  2    6:03  7:54    91  1959   32  1961    73  53  63     0.27  11.92    2.96   1929   4.0  1929
  3    6:01  7:55    92  1949   31  1976    73  53  63     0.42  12.07    1.99   2013
  4    6:00  7:56    92  1952   33  1954    73  54  63     0.57  12.22    2.03   1905
  5    5:59  7:57    93  1952   38  1979    73  54  64     0.71  12.36    1.24   1961
  6    5:58  7:58    92  2012   34  1944    74  54  64     0.86  12.51    2.10   1900    T   1944
  7    5:57  7:59    92  1940   35  1976    74  54  64     1.00  12.65    2.26   1961
  8    5:56  8:00    90  1963   36  1976    74  55  64     1.15  12.80    2.30   1961    T   1923
  9    5:55  8:00    92  1934   35  1966    74  55  65     1.29  12.94    2.09   1949
 10    5:54  8:01    91  1963   31  1966    75  55  65     1.43  13.08    2.22   1921
 11    5:53  8:02    91  2011   35  1907    75  56  65     1.59  13.24    1.65   1918
 12    5:52  8:03    92  1956   39  1960    75  56  66     1.74  13.39    2.18   2002
 13    5:51  8:04    91  1915   40  1971    75  56  66     1.89  13.54    1.70   1985
 14    5:50  8:05    93  2013   37  1920    76  57  66     2.04  13.69    3.33   1886
 15    5:49  8:06    94  1944   39  1959    76  57  66     2.20  13.85    1.91   1990
 16    5:48  8:07    93  2001   39  1875    76  57  67     2.35  14.00    5.59   1995
 17    5:48  8:08    94  1996   40  1973    77  58  67     2.50  14.15    3.95   1995
 18    5:47  8:09    94  1996   39  2002    77  58  67     2.65  14.30    2.38   1890
 19    5:46  8:09    94  1996   40  1894    77  58  68     2.80  14.45    2.14   1915
 20    5:45  8:10    93  1902   41  1981    77  58  68     2.95  14.60    1.66   1947
 21    5:44  8:11    93  1941   38  1883    78  59  68     3.11  14.76    2.00   1957
 22    5:44  8:12    94  1925   37  1883    78  59  68     3.27  14.92    1.31   2000
 23    5:43  8:13    92  2010   39  1931    78  59  69     3.42  15.07    2.02   1971
 24    5:42  8:14    92  2012   40  1961    78  60  69     3.58  15.23    2.15   1927
 25    5:42  8:14    93  1953   38  1925    79  60  69     3.74  15.39    2.47   1968
 26    5:41  8:15    98  1953   38  1961    79  60  70     3.90  15.55    3.26   1893
 27    5:41  8:16    93  2012   38  1961    79  61  70     4.06  15.71    2.23   1896
 28    5:40  8:17    94  2012   42  1971    80  61  70     4.22  15.87    1.95   1989
 29    5:40  8:17    94  1926   41  1984    80  61  71     4.39  16.04    2.13   1898
 30    5:39  8:18    97  1934   42  1889    80  62  71     4.56  16.21    2.63   1974
 31    5:39  8:19    98  1934   42  1889    81  62  71     4.72  16.37    1.74   2013

...NORMALS FOR THE MONTH OF MAY...

 TEMPERATURES          PRECIPITATION                     HEATING 

 HIGH  76.3         MONTH            4.72         MONTH             74 
 LOW   57.2         YEAR TO DATE    16.37         SEASON TO DATE  4530
 MEAN  66.8 
                          SNOWFALL                       COOLING 
                    
                    MONTH            0.0          MONTH            128
                    YEAR TO DATE    12.6          YEAR TO DATE     174
                    SEASON TO DATE  17.7
...EXTREMES FOR THE MONTH OF MAY... 

 RECORD HIGH TEMP 98 IN 1953 AND 1934       
 RECORD LOW TEMP 31 IN 1976 AND 1966       
 LOWEST HIGH TEMP 43 IN 1940        
 HIGHEST LOW TEMP 76 IN 2012 (X2) AND 1991       
 HIGHEST MEAN TEMP 85 IN 1996      
 LOWEST MEAN TEMP 40 IN 1909        
 WARMEST MAY 73.2 IN 2012          
 COLDEST MAY 58.3 IN 1961
 WETTEST MAY 12.92 INCHES IN 1995 
 DRIEST MAY 0.69 INCHES IN 1914 
 MAXIMUM 24 HR RAINFALL 6.55 INCHES IN 1995
 MAXIMUM 24 HR SNOWFALL 4.0 INCHES IN 1929
 MAXIMUM MAY SNOWFALL 4.0 INCHES IN 1929
 MINIMUM MAY SNOWFALL 0.0 INCHES (multiple occurrences)
 HIGHEST WIND SPEED 80 MPH IN 1896
 HIGHEST PRESSURE 30.52 INCHES IN 1943 
 LOWEST PRESSURE 28.83 INCHES IN 1978


JUNE - SAINT LOUIS WEATHER CALENDAR
          SUN           RECORD TEMPS      NORMAL TEMPS   PRECIPITATION  RECORD PRECIP. 
       RISE  SET    HIGH YEAR  LOW  YEAR  HIGH LOW MEAN   MONTH   YEAR   AMOUNT  YEAR
  
  1    5:38  8:20   100  1934   45  1972    81  62  72     0.16  16.53    3.55   1903 
  2    5:38  8:20   100  1934   48  1956    81  63  72     0.31  16.68    1.81   1983
  3    5:38  8:21    96  2011   43  1969    82  63  72     0.47  16.84    1.54   1904
  4    5:37  8:22    98  2011   47  1945    82  63  73     0.62  16.99    2.47   1998
  5    5:37  8:22    98  1948   48  1993    82  64  73     0.78  17.15    1.90   2015
  6    5:37  8:23    97  2011   44  1894    82  64  73     0.93  17.30    1.47   1993
  7    5:37  8:23    96  2011   48  1944    83  64  74     1.09  17.46    1.66   1945
  8    5:36  8:24    97  2011   46  1930    83  65  74     1.24  17.61    1.69   1891
  9    5:36  8:24    99  1953   47  1930    83  65  74     1.39  17.76    2.83   1937
 10    5:36  8:25   100  1953   48  1972    84  65  75     1.54  17.91    2.68   2003
 11    5:36  8:25    98  1933   45  1972    84  66  75     1.69  18.06    2.02   2005
 12    5:36  8:26    98  1953   50  1903    84  66  75     1.83  18.20    3.04   1999
 13    5:36  8:26    98  1952   50  1985    85  66  76     1.98  18.35    1.36   1963
 14    5:36  8:27    97  1987   48  1942    85  67  76     2.12  18.49    3.95   1957
 15    5:36  8:27   101  1952   49  1961    85  67  76     2.26  18.63    1.86   2009
 16    5:36  8:27   100  1952   46  1961    86  67  76     2.40  18.77    4.50   1888
 17    5:36  8:28    99  1944   46  1961    86  68  77     2.54  18.91    2.44   1882
 18    5:36  8:28   100  1953   52  1961    86  68  77     2.69  19.06    3.50   1875
 19    5:36  8:28   105  1936   52  1935    86  68  77     2.82  19.19    2.45   1928
 20    5:36  8:29   103  1953   52  1980    87  68  77     2.97  19.34    2.66   1885
 21    5:37  8:29    99  1988   49  1961    87  69  78     3.11  19.48    2.32   1981
 22    5:37  8:29   102  1930   51  1972    87  69  78     3.25  19.62    1.99   1969
 23    5:37  8:29   101  1930   52  1972    87  69  78     3.39  19.76    2.31   1924
 24    5:37  8:29   102  1988   48  1974    88  69  78     3.53  19.90    2.94   2000
 25    5:38  8:29   102  1954   50  1974    88  70  79     3.66  20.03    3.31   2003
 26    5:38  8:29   102  1954   51  1958    88  70  79     3.79  20.16    2.00   1942
 27    5:38  8:30   104  1952   55  1968    88  70  79     3.91  20.28    3.26   1886
 28    5:39  8:30   108  2012   54  1968    88  70  79     4.04  20.41    4.70   1902
 29    5:39  8:30   106  2012   55  1923    88  70  79     4.16  20.53    1.81   1960
 30    5:40  8:29   105  2012   54  1943    89  70  79     4.28  20.65    3.00   1947


...NORMALS FOR THE MONTH OF JUNE...

 TEMPERATURES          PRECIPITATION                     HEATING 

 HIGH  85.1         MONTH            4.28         MONTH              5 
 LOW   66.8         YEAR TO DATE    20.65         SEASON TO DATE  4535 
 MEAN  75.9 
                                                         COOLING 
  
                                                  MONTH            334
                                                  YEAR TO DATE     508
...EXTREMES FOR THE MONTH OF JUNE... 

 RECORD HIGH TEMP 108 IN 2012      
 RECORD LOW TEMP 43 IN 1969        
 LOWEST HIGH TEMP 55 IN 1945        
 HIGHEST LOW TEMP 82 IN 1988, 1913 (x2), AND 1901       
 HIGHEST MEAN TEMP 93.5 IN 2012      
 LOWEST MEAN TEMP 52 IN 1945       
 WARMEST JUNE 83.1 IN 1952 
 COLDEST JUNE 68.6 IN 1928
 WETTEST JUNE 12.35 INCHES IN 2003
 DRIEST JUNE 0.10 INCHES IN 1914 
 MAXIMUM 24 HR RAINFALL 4.80 INCHES IN 1902
 HIGHEST WIND SPEED 76 MPH IN 1974
 HIGHEST PRESSURE 30.46 INCHES IN 1913 
 LOWEST PRESSURE 28.91 INCHES IN 1974


JULY - SAINT LOUIS WEATHER CALENDAR
          SUN           RECORD TEMPS      NORMAL TEMPS   PRECIPITATION  RECORD PRECIP. 
       RISE  SET    HIGH YEAR  LOW  YEAR  HIGH LOW MEAN   MONTH   YEAR   AMOUNT  YEAR
  
  1    5:40  8:29   105  1980   56  1937    89  70  80     0.13  20.78    2.21   1999     
  2    5:41  8:29   101  1933   56  2001    89  71  80     0.26  20.91    2.09   1992
  3    5:41  8:29   101  2012   55  1968    89  71  80     0.38  21.03    2.01   1931
  4    5:42  8:29   105  2012   52  1940    89  71  80     0.51  21.16    3.03   1982
  5    5:42  8:29   105  2012   53  1972    89  71  80     0.64  21.29    4.68   1948
  6    5:43  8:28   106  2012   51  1972    89  71  80     0.78  21.43    3.10   1987
  7    5:43  8:28   107  2012   54  1983    89  71  80     0.92  21.57    1.91   1898
  8    5:44  8:28   101  1980   56  1891    89  71  80     1.06  21.71    3.19   1898
  9    5:45  8:28   103  1936   54  1963    89  71  80     1.20  21.85    4.04   1942
 10    5:45  8:27   104  1966   54  1963    89  71  80     1.34  21.99    3.37   1982
 11    5:46  8:27   106  1966   55  1963    89  71  80     1.47  22.12    2.60   1964
 12    5:46  8:26   110  1954   56  1975    89  71  80     1.61  22.26    2.28   1928
 13    5:47  8:26   106  1966   52  1975    89  71  80     1.74  22.39    1.44   1892
 14    5:48  8:25   115  1954   51  1967    89  71  80     1.88  22.53    3.16   1912
 15    5:49  8:25   107  1980   52  1930    89  71  80     2.02  22.67    1.15   1904
 16    5:49  8:24   103  1936   53  1930    89  71  80     2.16  22.81    2.22   1952
 17    5:50  8:24   103  2012   57  1976    89  71  80     2.30  22.95    1.94   1938
 18    5:51  8:23   112  1954   57  1976    89  71  80     2.44  23.09    1.61   1915
 19    5:52  8:23   106  1934   59  1984    89  71  80     2.57  23.22    3.16   1958
 20    5:52  8:22   110  1934   58  1929    89  71  80     2.70  23.35    3.70   1949
 21    5:53  8:21   106  1901   54  1970    89  71  80     2.83  23.48    1.49   1977
 22    5:54  8:20   107  1901   55  1970    89  71  80     2.95  23.60    2.70   1874
 23    5:55  8:20   108  1934   52  1947    89  71  80     3.09  23.74    2.05   1973
 24    5:56  8:19   111  1934   57  1876    89  71  80     3.22  23.87    1.62   1900
 25    5:56  8:18   108  2012   59  1911    89  71  80     3.35  24.00    3.35   1948
 26    5:57  8:17   105  1936   55  1962    89  71  80     3.47  24.12    2.24   1909
 27    5:58  8:16   106  1930   51  1962    89  71  80     3.60  24.25    2.48   1895
 28    5:59  8:15   108  1930   56  2013    89  71  80     3.73  24.38    2.18   1957
 29    6:00  8:15   103  1999   54  1971    89  71  80     3.85  24.50    2.74   1956
 30    6:01  8:14   104  1953   57  1971    89  71  80     3.98  24.63    2.33   1998
 31    6:02  8:13   103  2012   53  1971    89  71  80     4.11  24.76    2.16   1943

...NORMALS FOR THE MONTH OF JULY...

 TEMPERATURES          PRECIPITATION                    HEATING 

 HIGH  89.1         MONTH            4.11        MONTH              0 
 LOW   71.0         YEAR TO DATE    24.76        SEASON TO DATE     0 
 MEAN  80.0 
                                                        COOLING 
  
                                                 MONTH            467
                                                 YEAR TO DATE     975
...EXTREMES FOR THE MONTH OF JULY... 

 RECORD HIGH TEMP 115 IN 1954      
 RECORD LOW TEMP 51 IN 1972, 1967, AND 1962       
 LOWEST HIGH TEMP 66 IN 2004 AND 1990        
 HIGHEST LOW TEMP 86 IN 2012 AND 1901       
 HIGHEST MEAN TEMP 97.5 IN 1954       
 LOWEST MEAN TEMP 62 IN 1990       
 WARMEST JULY 88.1 IN 2012 
 COLDEST JULY 74.9 IN 1967 AND 1891
 WETTEST JULY 12.69 INCHES IN 1948 
 DRIEST JULY 0.37 INCHES IN 1890 
 MAXIMUM 24 HR RAINFALL 5.08 INCHES IN 1898
 HIGHEST WIND SPEED 75 MPH IN 1952
 HIGHEST PRESSURE 30.37 INCHES IN 1968
 LOWEST PRESSURE 29.17 INCHES IN 1973


AUGUST - SAINT LOUIS WEATHER CALENDAR
          SUN           RECORD TEMPS      NORMAL TEMPS   PRECIPITATION  RECORD PRECIP. 
       RISE  SET    HIGH YEAR  LOW  YEAR  HIGH LOW MEAN   MONTH   YEAR   AMOUNT  YEAR
  
  1    6:02  8:12   104  1980   57  1962    89  71  80     0.12  24.88    0.92   1954     
  2    6:03  8:11   105  1901   56  1927    89  71  80     0.23  24.99    1.13   1995
  3    6:04  8:10   104  1964   53  1927    89  71  80     0.34  25.10    1.45   1946
  4    6:05  8:08   105  1930   55  1974    89  71  80     0.44  25.20    1.18   2004
  5    6:06  8:07   104  1918   56  1974    89  71  80     0.54  25.30    2.31   1946
  6    6:07  8:06   104  1947   55  1948    89  71  80     0.64  25.40    2.70   1929
  7    6:08  8:05   103  1930   55  1978    89  71  80     0.74  25.50    2.10   1906
  8    6:09  8:04   108  1934   53  1976    89  70  80     0.84  25.60    3.46   1923
  9    6:10  8:03   110  1934   54  1884    89  70  80     0.94  25.70    1.44   1928
 10    6:10  8:02   105  1934   54  1972    89  70  79     1.04  25.80    2.58   1878
 11    6:11  8:00   104  1881   56  1967    89  70  79     1.14  25.90    2.34   1939
 12    6:12  7:59   106  1881   51  1967    89  70  79     1.24  26.00    2.10   1916
 13    6:13  7:58   103  1936   50  1964    88  70  79     1.34  26.10    1.18   1973
 14    6:14  7:57   103  2007   55  1933    88  70  79     1.43  26.19    3.67   1916
 15    6:15  7:55   105  2007   51  1992    88  70  79     1.52  26.28    4.31   1946
 16    6:16  7:54   103  1936   56  1992    88  70  79     1.61  26.37    2.35   1946
 17    6:17  7:53   104  1936   55  1879    88  70  79     1.71  26.47    1.89   1939
 18    6:18  7:51   106  1936   54  1963    88  70  79     1.80  26.56    2.10   1902
 19    6:18  7:50   105  1962   55  1953    88  69  79     1.89  26.65    2.03   1914
 20    6:19  7:49   104  1962   52  1950    88  69  78     1.99  26.75    6.85   1915
 21    6:20  7:47   104  2003   50  1950    88  69  78     2.08  26.84    2.07   1944
 22    6:21  7:46   103  1936   55  1950    88  69  78     2.17  26.93    2.01   1983
 23    6:22  7:44   102  1947   54  1966    87  69  78     2.26  27.02    1.58   1977
 24    6:23  7:43   103  1947   51  1942    87  69  78     2.34  27.10    2.71   1918
 25    6:24  7:42   101  1943   52  1958    87  68  78     2.44  27.20    1.30   2004
 26    6:25  7:40   103  1936   53  1934    87  68  78     2.53  27.29    2.46   1888
 27    6:26  7:39   102  1881   51  1968    87  68  77     2.62  27.38    1.72   1874
 28    6:27  7:37   101  1990   48  1986    87  68  77     2.71  27.47    2.53   1974
 29    6:27  7:36   107  1984   47  1986    86  67  77     2.80  27.56    1.53   1975
 30    6:28  7:34   102  2013   50  1934    86  67  77     2.89  27.65    1.04   1994
 31    6:29  7:33   103  2013   49  1967    86  67  76     2.99  27.75    1.48   2012
...NORMALS FOR THE MONTH OF AUGUST...

 TEMPERATURES          PRECIPITATION                    HEATING 

 HIGH  87.9         MONTH            2.99        MONTH              1 
 LOW   69.4         YEAR TO DATE    27.75        SEASON TO DATE     1 
 MEAN  78.6 
                                                        COOLING 
  
                                                 MONTH            424
                                                 YEAR TO DATE    1399
...EXTREMES FOR THE MONTH OF AUGUST... 

 RECORD HIGH TEMP 110 IN 1934      
 RECORD LOW TEMP 47 IN 1986        
 LOWEST HIGH TEMP 60 IN 1963       
 HIGHEST LOW TEMP 85 IN 1936       
 HIGHEST MEAN TEMP 95 IN 1984      
 LOWEST MEAN TEMP 57 IN 1963       
 WARMEST AUGUST 84.9 IN 1947 
 COLDEST AUGUST 70.4 IN 1915
 WETTEST AUGUST 14.78 INCHES IN 1946 
 DRIEST AUGUST 0.07 INCHES IN 1873 
 MAXIMUM 24 HR RAINFALL 7.02 INCHES IN 1915
 HIGHEST WIND SPEED 72 MPH IN 1878
 HIGHEST PRESSURE 30.39 INCHES IN 1957 
 LOWEST PRESSURE 29.27 INCHES IN 1976


SEPTEMBER - SAINT LOUIS WEATHER CALENDAR
          SUN           RECORD TEMPS      NORMAL TEMPS   PRECIPITATION  RECORD PRECIP. 
       RISE  SET    HIGH YEAR  LOW  YEAR  HIGH LOW MEAN   MONTH   YEAR   AMOUNT  YEAR
  
  1    6:30  7:31   104  2011   49  1967    86  67  76     0.10  27.85    4.70   1931     
  2    6:31  7:30   101  2011   50  1967    85  66  76     0.21  27.96    1.56   1993
  3    6:32  7:28   101  2011   45  1974    85  66  75     0.31  28.06    0.74   1991
  4    6:33  7:27   104  1954   42  1974    85  66  75     0.41  28.16    3.20   1885
  5    6:34  7:25   103  1954   47  1974    84  65  75     0.52  28.27    1.89   1914
  6    6:34  7:24   102  1925   48  1962    84  65  74     0.62  28.37    2.81   1876
  7    6:35  7:22   101  1939   46  1956    84  64  74     0.73  28.48    2.52   1972
  8    6:36  7:20   101  1947   42  1986    83  64  74     0.83  28.58    2.87   1920
  9    6:37  7:19   101  1925   43  1883    83  64  73     0.93  28.68    2.05   1878
 10    6:38  7:17    98  2013   46  1976    83  63  73     1.03  28.78    2.89   1984
 11    6:39  7:16    98  2013   42  1940    82  63  73     1.13  28.88    1.28   1944
 12    6:40  7:14    98  1956   44  1940    82  62  72     1.24  28.99    2.10   1949
 13    6:41  7:13   100  1939   43  1975    81  62  72     1.34  29.09    4.61   1945
 14    6:42  7:11   101  1939   46  1996    81  61  71     1.44  29.19    4.58   2008
 15    6:42  7:09   101  1939   45  2007    81  61  71     1.55  29.30    2.05   1914
 16    6:43  7:08    98  1954   44  1966    80  61  70     1.65  29.40    2.78   1969
 17    6:44  7:06    97  1931   37  1937    80  60  70     1.75  29.50    2.25   1968
 18    6:45  7:05    97  1925   42  1973    79  60  69     1.85  29.60    1.04   2001
 19    6:46  7:03    96  1955   42  1938    79  59  69     1.95  29.70    1.82   1954
 20    6:47  7:01    96  1940   40  1875    78  59  69     2.06  29.81    1.40   1876
 21    6:48  7:00    97  1881   40  1983    78  58  68     2.16  29.91    1.78   1947
 22    6:49  6:58    95  1956   40  1995    78  58  68     2.27  30.02    1.77   1993
 23    6:49  6:57    94  1891   36  1974    77  57  67     2.37  30.12    1.23   1996
 24    6:50  6:55    94  1891   37  1942    77  57  67     2.49  30.24    2.57   1941
 25    6:51  6:53    92  1900   39  1942    76  56  66     2.60  30.35    1.36   1886
 26    6:52  6:52    94  1897   35  1940    76  56  66     2.71  30.46    2.26   1884
 27    6:53  6:50    91  1891   36  1940    75  56  66     2.82  30.57    1.28   1945
 28    6:54  6:49    97  1953   32  1942    75  55  65     2.93  30.68    3.73   1919
 29    6:55  6:47   102  1953   36  1942    75  55  65     3.03  30.78    1.64   1906
 30    6:56  6:46    93  1952   36  1949    74  54  64     3.13  30.88    2.35   1986

 
...NORMALS FOR THE MONTH OF SEPTEMBER...

 TEMPERATURES           PRECIPITATION                    HEATING 

 HIGH  80.2         MONTH            3.13         MONTH             40 
 LOW   60.6         YEAR TO DATE    30.88         SEASON TO DATE    41 
 MEAN  70.4 
                                                         COOLING 
  
                                                  MONTH            202
                                                  YEAR TO DATE    1601
...EXTREMES FOR THE MONTH OF SEPTEMBER... 

 RECORD HIGH TEMP 104 IN 2011, 1984, AND 1954      
 RECORD LOW TEMP 32 IN 1942        
 LOWEST HIGH TEMP 50 IN 1876        
 HIGHEST LOW TEMP 83 IN 1899       
 HIGHEST MEAN TEMP 93 IN 2011      
 LOWEST MEAN TEMP 44 IN 1942       
 WARMEST SEPTEMBEER 77.4 IN 1897 
 COLDEST SEPTEMBER 62.3 IN 1974
 WETTEST SEPTEMBER 10.04 INCHES IN 1945 
 DRIEST SEPTEMBER TRACE IN 1979 AND 1940 
 MAXIMUM 24 HR RAINFALL 4.90 INCHES IN 1931
 HIGHEST WIND SPEED 70 MPH IN 1927
 HIGHEST PRESSURE 30.56 INCHES IN 1947 
 LOWEST PRESSURE 29.26 INCHES IN 1982


OCTOBER - SAINT LOUIS WEATHER CALENDAR
          SUN           RECORD TEMPS      NORMAL TEMPS   PRECIPITATION     RECORD PRECIPITATION 
       RISE  SET    HIGH YEAR  LOW  YEAR  HIGH LOW MEAN   MONTH   YEAR   AMOUNT  YEAR  SNOW  YEAR
  
  1    6:57  6:44    91  1952   36  1985    74  54  64     0.10  30.98    2.18   1881    
  2    6:58  6:42    94  1953   32  1974    73  54  64     0.21  31.09    1.82   2002
  3    6:59  6:41    94  2006   31  1974    73  53  63     0.31  31.19    2.67   1986
  4    7:00  6:39    92  1951   36  1935    73  53  63     0.42  31.30    1.51   1991
  5    7:00  6:38    92  1938   36  1964    72  52  62     0.52  31.40    2.65   1910
  6    7:01  6:36    90  1944   31  1952    72  52  62     0.63  31.51    1.65   1940
  7    7:02  6:35    92  1963   29  1952    72  52  62     0.74  31.62    1.74   1990
  8    7:03  6:33    92  1980   30  2000    71  51  61     0.84  31.72    2.66   2009
  9    7:04  6:32    89  1938   30  2000    71  51  61     0.95  31.83    1.45   1958
 10    7:05  6:30    92  1963   29  1964    71  51  61     1.06  31.94    1.27   2001
 11    7:06  6:29    94  1963   30  1964    70  50  60     1.17  32.05    2.01   1954    T   1909
 12    7:07  6:27    89  1890   31  1987    70  50  60     1.28  32.16    1.82   1929
 13    7:08  6:26    90  1899   33  1979    70  50  60     1.39  32.27    0.84   2014
 14    7:09  6:24    90  1899   30  1937    69  50  59     1.50  32.38    1.10   1974
 15    7:10  6:23    90  1897   30  1937    69  49  59     1.61  32.49    1.29   1914    T   1954
 16    7:11  6:22    89  1950   32  1943    69  49  59     1.71  32.59    2.41   1914
 17    7:12  6:20    88  1950   29  1943    68  49  58     1.82  32.70    1.48   1963
 18    7:13  6:19    87  1953   27  1976    68  48  58     1.93  32.81    2.21   1883    T   1898
 19    7:14  6:17    87  1953   25  1972    68  48  58     2.04  32.92    2.87   1885    T   1989
 20    7:15  6:16    88  2003   26  1930    67  48  58     2.15  33.03    2.08   1983   0.1  1916
 21    7:16  6:15    88  1979   28  1952    67  48  57     2.26  33.14    0.76   1949    T   1937
 22    7:17  6:13    86  1947   25  1976    67  47  57     2.37  33.25    1.91   2009    T   1937
 23    7:18  6:12    86  1939   28  1981    66  47  57     2.48  33.36    1.38   1976   0.2  1917
 24    7:19  6:11    85  1940   25  1981    66  47  56     2.59  33.47    1.11   1918
 25    7:20  6:09    87  1940   24  1887    65  46  56     2.69  33.57    1.22   1947    T   1898
 26    7:21  6:08    86  1940   22  1942    65  46  56     2.79  33.67    2.76   1919    T   1898
 27    7:22  6:07    85  1950   28  1957    65  46  55     2.90  33.78    1.77   1919    T   1967
 28    7:23  6:06    85  1927   23  1976    64  45  55     3.01  33.89    0.98   1955    T   1920
 29    7:24  6:05    85  1937   24  1952    64  45  55     3.12  34.00    1.41   2009   0.3  1913
 30    7:26  6:03    90  1950   21  1925    64  45  54     3.22  34.10    2.03   1942    T   1925
 31    7:27  6:02    88  1968   26  1878    63  44  54     3.33  34.21    2.91   1946    T   1993
...NORMALS FOR THE MONTH OF OCTOBER...

 TEMPERATURES           PRECIPITATION                    HEATING 

 HIGH  68.5         MONTH            3.33         MONTH            235 
 LOW   49.0         YEAR TO DATE    34.21         SEASON TO DATE   276 
 MEAN  58.7 
                          SNOWFALL                       COOLING 
                    
                    MONTH            0.0          MONTH             41
                    YEAR TO DATE    12.6          YEAR TO DATE    1642
                    SEASON TO DATE   0.0
...EXTREMES FOR THE MONTH OF OCTOBER... 

 RECORD HIGH TEMP 94 IN 2006, 1963, AND 1953       
 RECORD LOW TEMP 21 IN 1925         
 LOWEST HIGH TEMP 30 IN 1925        
 HIGHEST LOW TEMP 74 IN 1979 AND 1884       
 HIGHEST MEAN TEMP 83 IN 1954      
 LOWEST MEAN TEMP 27 IN 1925       
 WARMEST OCTOBER 66.9 IN 1963       
 COLDEST OCTOBER 49.5 IN 1925
 WETTEST OCTOBER 12.38 INCHES IN 2009 
 DRIEST OCTOBER 0.21 INCHES IN 1975 AND 1908
 MAXIMUM 24 HR RAINFALL 3.98 INCHES IN 1947
 MAXIMUM 24 HR SNOWFALL 0.3 INCHES IN 1913
 MAXIMUM OCTOBER SNOWFALL 0.3 INCHES IN 1913
 MINIMUM OCTOBER SNOWFALL 0.0 INCHES (multiple occurrences)
 HIGHEST WIND SPEED 78 MPH IN 1981
 HIGHEST PRESSURE 30.99 INCHES IN 1976
 LOWEST PRESSURE 29.33 INCHES IN 1995


NOVEMBER - SAINT LOUIS WEATHER CALENDAR
          SUN           RECORD TEMPS      NORMAL TEMPS   PRECIPITATION     RECORD PRECIPITATION 
       RISE  SET    HIGH YEAR  LOW  YEAR  HIGH LOW MEAN   MONTH   YEAR   AMOUNT  YEAR  SNOW  YEAR
  
  1    6:28  5:01    86  1937   26  1954    63  44  53     0.12  34.33    2.87   1972    T   1991  
  2    6:29  5:00    80  1990   18  1951    62  44  53     0.24  34.45    2.45   1946    T   1899
  3    6:30  4:59    82  1987   16  1991    62  43  53     0.35  34.56    1.15   1968   0.2  1997
  4    6:31  4:58    82  1978   18  1951    61  43  52     0.47  34.68    1.35   1990    T   1992
  5    6:32  4:57    82  1978   23  1976    61  43  52     0.60  34.81    1.62   1956   3.4  1951
  6    6:33  4:56    81  1915   22  1959    61  42  51     0.72  34.93    2.25   1996   6.9  1951
  7    6:34  4:55    80  1945   14  1991    60  42  51     0.85  35.06    2.22   1925   1.6  1991
  8    6:35  4:54    82  2005    8  1991    60  41  51     0.97  35.18    1.35   1888    T   1971
  9    6:36  4:53    78  1975   16  1991    59  41  50     1.09  35.30    1.18   1946    T   1968
 10    6:38  4:52    81  2012   18  1973    59  41  50     1.22  35.43    0.97   1974    T   1984
 11    6:39  4:51    85  1989   18  1976    58  40  49     1.35  35.56    1.53   1992   1.0  1911
 12    6:40  4:50    79  1971   12  1911    58  40  49     1.48  35.69    1.22   1909   0.1  1907
 13    6:41  4:49    82  1999   10  1986    57  39  48     1.62  35.83    1.15   1972   2.3  1997
 14    6:42  4:49    81  1971   13  1940    56  39  48     1.76  35.97    1.86   1993   2.0  1906
 15    6:43  4:48    81  1971   11  1940    56  38  47     1.90  36.11    1.77   1968   0.7  2014
 16    6:44  4:47    78  1952   13  1959    55  38  47     2.04  36.25    1.72   2009   1.7  2014
 17    6:45  4:46    80  2013    6  1959    55  38  46     2.17  36.38    1.77   1879   6.2  1926
 18    6:46  4:46    78  1976   14  2014    54  37  46     2.31  36.52    3.56   1921   2.9  1961
 19    6:47  4:45    80  1942    8  1880    54  37  45     2.45  36.66    1.66   1900   5.2  1972
 20    6:48  4:45    76  1942   14  1914    53  36  45     2.59  36.80    1.64   1956   3.3  1926
 21    6:50  4:44    75  1990    9  1880    53  36  44     2.72  36.93    2.41   1883   0.8  1926
 22    6:51  4:43    77  1900   10  1880    52  35  44     2.86  37.07    2.28   1963   2.3  1941
 23    6:52  4:43    75  1931    8  1950    52  35  43     2.99  37.20    1.50   1983   3.4  1938
 24    6:53  4:42    74  1966    3  1950    51  34  43     3.13  37.34    3.08   2010   1.4  2004
 25    6:54  4:42    74  1990    4  1950    51  34  42     3.26  37.47    1.06   1996   1.5  1903
 26    6:55  4:42    76  1965    7  1977    50  34  42     3.39  37.60    2.32   1887   7.6  1975
 27    6:56  4:41    76  1989   12  1898    49  33  41     3.52  37.73    1.94   1983   5.7  1980
 28    6:57  4:41    77  1905   10  1887    49  33  41     3.66  37.87    1.56   1968   6.5  1929
 29    6:58  4:41    75  1933    8  1976    48  32  40     3.78  37.99    0.73   1967   1.7  1964
 30    6:59  4:40    72  2014    1  1964    48  32  40     3.91  38.12    2.92   2006   2.4  2008


...NORMALS FOR THE MONTH OF NOVEMBER...

 TEMPERATURES           PRECIPITATION                    HEATING 

 HIGH  55.5         MONTH            3.91         MONTH            550 
 LOW   38.1         YEAR TO DATE    38.12         SEASON TO DATE   826 
 MEAN  46.8 
                          SNOWFALL                       COOLING 
                    
                    MONTH            0.7          MONTH              4
                    YEAR TO DATE    13.3          YEAR TO DATE    1646
                    SEASON TO DATE   0.7
...EXTREMES FOR THE MONTH OF NOVEMBER... 

 RECORD HIGH TEMP 86 IN 1937      
 RECORD LOW TEMP 1 IN 1964        
 LOWEST HIGH TEMP 12 IN 1950      
 HIGHEST LOW TEMP 67 IN 1982 AND 1924      
 HIGHEST MEAN TEMP 73 IN 1987     
 LOWEST MEAN TEMP 8 IN 1964       
 WARMEST NOVEMBER 54.4 IN 1909    
 COLDEST NOVEMBER 33.0 IN 1880
 WETTEST NOVEMBER 9.95 INCHES IN 1985 
 DRIEST NOVEMBER 0.11 INCHES IN 1949 
 MAXIMUM 24 HR RAINFALL 3.71 INCHES IN 1985 
 MAXIMUM 24 HR SNOWFALL 10.3 INCHES IN 1951
 MAXIMUM NOVEMBER SNOWFALL 11.3 INCHES IN 1951
 MINIMUM NOVEMBER SNOWFALL 0.0 INCHES (multiple occurrences)
 HIGHEST WIND SPEED 65 MPH IN 1958
 HIGHEST PRESSURE 30.95 INCHES IN 1986 
 LOWEST PRESSURE 28.94 INCHES IN 1976


DECEMBER - SAINT LOUIS WEATHER CALENDAR
          SUN           RECORD TEMPS      NORMAL TEMPS   PRECIPITATION     RECORD PRECIPITATION 
       RISE  SET    HIGH YEAR  LOW  YEAR  HIGH LOW MEAN   MONTH   YEAR   AMOUNT  YEAR  SNOW  YEAR
  
  1    7:00  4:40    73  1970    4  1876    47  31  39     0.11  38.23    1.26   1878   3.5  1937    
  2    7:01  4:40    75  2012    4  1886    47  31  39     0.21  38.33    1.73   1967   1.7  1967
  3    7:02  4:40    76  1970    2  1886    47  31  39     0.32  38.44    2.73   1982   2.3  1921
  4    7:03  4:40    74  2001    8  1886    46  30  38     0.42  38.54    0.94   1923   3.5  2002
  5    7:04  4:40    72  2001    8  1886    46  30  38     0.51  38.63    1.35   2014   6.6  1977
  6    7:04  4:40    72  1998    3  1977    45  29  37     0.61  38.73    1.59   1956   2.3  1950
  7    7:05  4:40    73  1966  - 6  1882    45  29  37     0.71  38.83    0.97   1966   3.2  1917
  8    7:06  4:40    74  1991  - 2  1882    44  29  37     0.82  38.94    1.44   1878   3.9  1977
  9    7:07  4:40    74  1918  - 5  1876    44  28  36     0.91  39.03    0.80   1999   2.0  1944
 10    7:08  4:40    73  1889  - 4  1917    44  28  36     1.01  39.13    2.15   1971   4.0  1944
 11    7:09  4:40    70  1979    2  1962    43  28  36     1.10  39.22    1.20   1949   4.3  1963
 12    7:09  4:40    70  1991  - 5  1962    43  28  35     1.19  39.31    1.31   1972   4.4  2010
 13    7:10  4:40    73  1948    1  1903    43  27  35     1.27  39.39    2.40   1901   7.6  2000
 14    7:11  4:40    70  1975  - 2  1901    42  27  35     1.36  39.48    2.39   1971   6.6  1987
 15    7:12  4:41    76  1948  - 5  1901    42  27  34     1.45  39.57    2.76   1992   6.9  2007
 16    7:12  4:41    70  1889  - 8  1989    42  26  34     1.53  39.65    1.16   2001   1.8  2000
 17    7:13  4:41    72  1908  - 3  1875    42  26  34     1.62  39.74    1.02   1959   2.0  1897
 18    7:14  4:42    69  1939  - 4  1983    41  26  34     1.70  39.82    2.78   1924   5.2  1929
 19    7:14  4:42    68  1976  - 7  1983    41  26  34     1.78  39.90    1.49   1895  12.0  1973
 20    7:15  4:43    71  2013  -10  1901    41  26  33     1.87  39.99    1.36   1962   3.3  1960
 21    7:15  4:43    67  1967  -12  1989    41  25  33     1.96  40.08    1.84   1967   2.6  1983
 22    7:16  4:44    66  1965  -16  1989    41  25  33     2.05  40.17    1.46   1988   3.1  1990
 23    7:16  4:44    74  1933  -15  1989    41  25  33     2.14  40.26    1.84   1921   3.5  1907
 24    7:17  4:45    73  1889  -12  1983    40  25  33     2.23  40.35    1.18   1915   9.5  1915
 25    7:17  4:45    71  1889  -13  1983    40  25  33     2.32  40.44    0.94   1913   9.2  1913
 26    7:17  4:46    70  1942  - 2  1892    40  25  32     2.41  40.53    1.06   1916   1.6  1920
 27    7:18  4:47    72  1971  - 3  1886    40  25  32     2.50  40.62    3.04   1922   5.2  1939
 28    7:18  4:47    75  1928  - 8  1924    40  24  32     2.58  40.70    1.45   1884   3.5  1943
 29    7:18  4:48    70  1984  -15  1880    40  24  32     2.67  40.79    1.65   1990   1.7  2000
 30    7:19  4:49    72  1965  - 5  1880    40  24  32     2.75  40.87    0.98   1973  10.5  1973
 31    7:19  4:50    74  1951  -10  1976    40  24  32     2.84  40.96    1.69   1984   2.1  1897
 
...NORMALS FOR THE MONTH OF DECEMBER...

 TEMPERATURES           PRECIPITATION                    HEATING 

 HIGH  42.5         MONTH            2.84         MONTH            939
 LOW   26.9         YEAR TO DATE    40.96         SEASON TO DATE  1765 
 MEAN  34.7 
                          SNOWFALL                       COOLING 
                    
                    MONTH            4.4          MONTH              0
                    YEAR TO DATE    17.7          YEAR TO DATE    1646
                    SEASON TO DATE   5.1
...EXTREMES FOR THE MONTH OF DECEMBER... 

 RECORD HIGH TEMP 76 IN 1970 AND 1948      
 RECORD LOW TEMP -16 IN 1989      
 LOWEST HIGH TEMP -5 IN 1983      
 HIGHEST LOW TEMP 63 IN 2012 AND 1982      
 HIGHEST MEAN TEMP 69 IN 1982     
 LOWEST MEAN TEMP -10 IN 1880     
 WARMEST DECEMBER 49.8 IN 1889    
 COLDEST DECEMBER 20.5 IN 1983
 WETTEST DECEMBER 7.82 INCHES IN 1982 
 DRIEST DECEMBER 0.03 INCHES IN 1955 
 MAXIMUM 24 HR RAINFALL 4.03 INCHES IN 1982 
 MAXIMUM 24 HR SNOWFALL 12.0 INCHES IN 1973
 MAXIMUM DECEMBER SNOWFALL 26.3 INCHES IN 1973
 MINIMUM DECEMBER SNOWFALL 0.0 INCHES (multiple occurrences)
 HIGHEST WIND SPEED 67 MPH IN 2012
 HIGHEST PRESSURE 31.01 INCHES IN 1924 
 LOWEST PRESSURE 28.92 INCHES IN 1979